N3EYQ Weather Reports


Display with metric or nautical units.
time (UTC)temp
F
wind
direction
speed
MPH
gust
MPH
rain 1hr
in
rain 24hr
in
rain mn
in
humidity
%
barometer
mb
20260508073149 48 0 0.0 0.0 0.00 0.00 0.00 65 1011.0
20260508072149 48 0 0.0 0.0 0.00 0.00 0.00 65 1011.0
20260508071148 47 0 0.0 0.0 0.00 0.00 0.00 68 1011.0
20260508070148 46 0 0.0 0.0 0.00 0.00 0.00 71 1011.0
20260508065148 46 0 0.0 0.0 0.00 0.00 0.00 70 1011.0
20260508064148 46 0 0.0 0.0 0.00 0.00 0.00 70 1011.0
20260508063147 47 0 0.0 0.0 0.00 0.00 0.00 70 1011.0
20260508062147 47 0 0.0 0.0 0.00 0.00 0.00 69 1011.0
20260508061147 47 0 0.0 0.0 0.00 0.00 0.00 70 1011.0
20260508060147 47 0 0.0 0.0 0.00 0.00 0.00 69 1011.0
20260508055147 46 0 0.0 0.0 0.00 0.00 0.00 72 1011.3
20260508054147 46 0 0.0 0.0 0.00 0.00 0.00 73 1011.0
20260508053147 46 0 0.0 0.0 0.00 0.00 0.00 73 1010.6
20260508052147 46 0 0.0 0.0 0.00 0.00 0.00 73 1010.0
20260508051147 46 0 0.0 0.0 0.00 0.00 0.00 73 1010.0
20260508050147 46 0 0.0 0.0 0.00 0.00 0.00 74 1010.0
20260508045147 46 0 0.0 0.0 0.00 0.00 0.00 72 1010.3
20260508044236 46 0 0.0 0.0 0.00 0.00 0.00 72 1010.3
20260508043147 46 0 0.0 0.0 0.00 0.00 0.00 72 1010.3
20260508042146 46 0 0.0 0.0 0.00 0.00 0.00 72 1010.3
20260508041146 46 0 0.0 0.0 0.00 0.00 0.00 72 1010.3
20260508040146 46 0 0.0 0.0 0.00 0.00 0.00 72 1010.3
20260508035146 45 0 0.0 0.0 0.00 0.00 0.00 72 1010.0
20260508034146 45 0 0.0 0.0 0.00 0.00 0.00 71 1010.0
20260508033146 45 0 0.0 0.0 0.00 0.00 0.00 70 1010.3
20260508032145 45 0 0.0 0.0 0.00 0.00 0.00 69 1010.3
20260508031145 45 0 0.0 0.0 0.00 0.00 0.00 68 1010.3
20260508030145 45 0 0.0 0.0 0.00 0.00 0.00 67 1010.3
20260508025145 45 0 0.0 0.0 0.00 0.00 0.00 67 1010.3
20260508024145 45 0 0.0 0.0 0.00 0.00 0.00 66 1010.6
20260508023145 45 0 0.0 0.0 0.00 0.00 0.00 65 1010.3
20260508022145 45 0 0.0 0.0 0.00 0.00 0.00 64 1010.3
20260508021144 46 0 0.0 0.0 0.00 0.00 0.00 64 1010.3
20260508020144 46 0 0.0 0.0 0.00 0.00 0.00 63 1010.3
20260508015144 46 0 0.0 0.0 0.00 0.00 0.00 62 1010.3
20260508014144 47 0 0.0 0.0 0.00 0.00 0.00 62 1010.0
20260508013145 47 0 0.0 0.0 0.00 0.00 0.00 61 1010.0
20260508012144 47 0 0.0 0.0 0.00 0.00 0.00 60 1010.0
20260508011143 48 0 0.0 0.0 0.00 0.00 0.00 60 1010.0
20260508010143 48 0 0.0 0.0 0.00 0.00 0.00 59 1009.6
20260508005143 49 0 0.0 0.0 0.00 0.00 0.00 57 1009.6
20260508004143 49 0 0.0 0.0 0.00 0.00 0.00 56 1009.3
20260508003143 50 0 0.0 0.0 0.00 0.00 0.00 54 1009.3
20260508002144 52 0 0.0 0.0 0.00 0.00 0.00 52 1009.3
20260508001144 53 0 0.0 0.0 0.00 0.00 0.00 50 1008.9
20260508000142 54 0 0.0 0.0 0.00 0.00 0.00 48 1008.6
20260507235142 55 0 0.0 0.0 0.00 0.00 0.00 47 1008.9
20260507234142 56 0 0.0 0.0 0.00 0.00 0.00 45 1008.9
20260507233142 56 0 0.0 0.0 0.00 0.00 0.00 43 1008.6
20260507232142 57 0 0.0 0.0 0.00 0.00 0.00 41 1008.6
20260507231142 58 0 0.0 0.0 0.00 0.00 0.00 38 1008.6
20260507230142 59 0 0.0 0.0 0.00 0.00 0.00 39 1008.6
20260507225142 59 0 0.0 0.0 0.00 0.00 0.00 40 1008.3
20260507224141 59 0 0.0 0.0 0.00 0.00 0.00 39 1008.6
20260507223141 59 0 0.0 0.0 0.00 0.00 0.00 39 1008.6
20260507222142 60 0 0.0 0.0 0.00 0.00 0.00 38 1008.3
20260507221142 60 0 0.0 0.0 0.00 0.00 0.00 37 1008.6
20260507220141 61 0 0.0 0.0 0.00 0.00 0.00 36 1008.6
20260507215141 62 0 0.0 0.0 0.00 0.00 0.00 34 1008.6
20260507214140 62 0 0.0 0.0 0.00 0.00 0.00 34 1008.3
20260507213142 61 0 0.0 0.0 0.00 0.00 0.00 36 1008.3
20260507212140 61 0 0.0 0.0 0.00 0.00 0.00 35 1008.3
20260507211141 63 0 0.0 0.0 0.00 0.00 0.00 34 1008.3
20260507210141 62 0 0.0 0.0 0.00 0.00 0.00 32 1008.3
20260507205141 62 0 0.0 0.0 0.00 0.00 0.00 36 1008.3
20260507204140 62 0 0.0 0.0 0.00 0.00 0.00 35 1008.3
20260507203140 62 0 0.0 0.0 0.00 0.00 0.00 34 1008.3
20260507202139 64 0 0.0 0.0 0.00 0.00 0.00 35 1008.3
20260507201139 63 0 0.0 0.0 0.00 0.00 0.00 34 1008.3
20260507200140 62 0 0.0 0.0 0.00 0.00 0.00 34 1008.3
20260507195139 61 0 0.0 0.0 0.00 0.00 0.00 34 1008.3
20260507194139 63 0 0.0 0.0 0.00 0.00 0.00 35 1008.3
20260507193139 62 0 0.0 0.0 0.00 0.00 0.00 36 1008.6
20260507192138 62 0 0.0 0.0 0.00 0.00 0.00 37 1008.6
20260507191139 63 0 0.0 0.0 0.00 0.00 0.00 35 1008.6
20260507190139 63 0 0.0 0.0 0.00 0.00 0.00 33 1008.9
20260507185138 64 0 0.0 0.0 0.00 0.00 0.00 34 1008.6
20260507184138 62 0 0.0 0.0 0.00 0.00 0.00 33 1008.9
20260507183138 63 0 0.0 0.0 0.00 0.00 0.00 37 1009.3
20260507182138 62 0 0.0 0.0 0.00 0.00 0.00 34 1009.3
20260507181138 63 0 0.0 0.0 0.00 0.00 0.00 32 1009.3
20260507180137 62 0 0.0 0.0 0.00 0.00 0.00 34 1009.3
20260507175138 64 0 0.0 0.0 0.00 0.00 0.00 34 1009.6
20260507174138 64 0 0.0 0.0 0.00 0.00 0.00 33 1009.6
20260507173137 64 0 0.0 0.0 0.00 0.00 0.00 30 1009.6
20260507172138 63 0 0.0 0.0 0.00 0.00 0.00 33 1009.6
20260507171137 63 0 0.0 0.0 0.00 0.00 0.00 32 1010.0
20260507170137 62 0 0.0 0.0 0.00 0.00 0.00 36 1010.0
20260507165137 63 0 0.0 0.0 0.00 0.00 0.00 37 1010.0
20260507164138 63 0 0.0 0.0 0.00 0.00 0.00 38 1010.0
20260507163136 62 0 0.0 0.0 0.00 0.00 0.00 34 1010.0
20260507162137 62 0 0.0 0.0 0.00 0.00 0.00 37 1010.3
20260507161136 62 0 0.0 0.0 0.00 0.00 0.00 38 1010.6
20260507160136 62 0 0.0 0.0 0.00 0.00 0.00 37 1010.6
20260507155136 62 0 0.0 0.0 0.00 0.00 0.00 38 1011.0
20260507154136 61 0 0.0 0.0 0.00 0.00 0.00 41 1011.0
20260507153136 60 0 0.0 0.0 0.00 0.00 0.00 40 1011.3
20260507152136 59 0 0.0 0.0 0.00 0.00 0.00 39 1011.3
20260507151136 58 0 0.0 0.0 0.00 0.00 0.00 41 1011.6
20260507150135 59 0 0.0 0.0 0.00 0.00 0.00 42 1011.6
20260507145135 57 0 0.0 0.0 0.00 0.00 0.00 43 1011.6
20260507144135 57 0 0.0 0.0 0.00 0.00 0.00 38 1011.6
20260507143135 57 0 0.0 0.0 0.00 0.00 0.00 43 1011.6
20260507142135 57 0 0.0 0.0 0.00 0.00 0.00 40 1011.6
20260507141134 58 0 0.0 0.0 0.00 0.00 0.00 45 1011.6
20260507140135 57 0 0.0 0.0 0.00 0.00 0.00 48 1011.6
20260507135135 56 0 0.0 0.0 0.00 0.00 0.00 44 1011.6
20260507134134 55 0 0.0 0.0 0.00 0.00 0.00 43 1012.0
20260507133135 55 0 0.0 0.0 0.00 0.00 0.00 52 1012.0
20260507132134 54 0 0.0 0.0 0.00 0.00 0.00 45 1012.0
20260507131134 54 0 0.0 0.0 0.00 0.00 0.00 47 1011.6
20260507130131 54 0 0.0 0.0 0.00 0.00 0.00 49 1011.6
20260507125125 54 0 0.0 0.0 0.00 0.00 0.00 49 1011.6
20260507124126 54 0 0.0 0.0 0.00 0.00 0.00 57 1011.6
20260507123125 53 0 0.0 0.0 0.00 0.00 0.00 61 1011.6
20260507122125 52 0 0.0 0.0 0.00 0.00 0.00 56 1011.6
20260507121125 52 0 0.0 0.0 0.00 0.00 0.00 64 1011.6
20260507120124 52 0 0.0 0.0 0.00 0.00 0.00 67 1011.6
20260507115124 51 0 0.0 0.0 0.00 0.00 0.00 64 1011.6
20260507114125 51 0 0.0 0.0 0.00 0.00 0.00 71 1011.6
20260507113124 50 0 0.0 0.0 0.00 0.00 0.00 75 1011.6
20260507112125 50 0 0.0 0.0 0.00 0.00 0.00 81 1011.3
20260507111124 49 0 0.0 0.0 0.00 0.00 0.00 83 1011.3
20260507110124 48 0 0.0 0.0 0.00 0.00 0.00 87 1011.3
20260507105125 47 0 0.0 0.0 0.00 0.00 0.00 87 1011.0
20260507104123 46 0 0.0 0.0 0.00 0.00 0.00 88 1011.0
20260507103123 45 0 0.0 0.0 0.00 0.00 0.00 88 1010.6
20260507102123 45 0 0.0 0.0 0.00 0.00 0.00 88 1010.6
20260507101123 45 0 0.0 0.0 0.00 0.00 0.00 88 1010.3
20260507100123 45 0 0.0 0.0 0.00 0.00 0.00 88 1010.0
20260507095123 45 0 0.0 0.0 0.00 0.00 0.00 87 1010.0
20260507094123 45 0 0.0 0.0 0.00 0.00 0.00 87 1010.0
20260507093123 46 0 0.0 0.0 0.00 0.00 0.00 87 1010.0
20260507092122 46 0 0.0 0.0 0.00 0.00 0.00 87 1010.0
20260507091122 46 0 0.0 0.0 0.00 0.00 0.00 87 1009.6
20260507090123 46 0 0.0 0.0 0.00 0.00 0.00 87 1010.0
20260507085123 47 0 0.0 0.0 0.00 0.00 0.00 87 1010.0
20260507084122 47 0 0.0 0.0 0.00 0.00 0.00 87 1010.0
20260507083122 48 0 0.0 0.0 0.00 0.00 0.00 87 1010.3
20260507082121 48 0 0.0 0.0 0.00 0.00 0.00 87 1010.3
20260507081121 48 0 0.0 0.0 0.00 0.00 0.00 87 1010.0
20260507080121 49 0 0.0 0.0 0.00 0.00 0.00 87 1010.3
20260507075121 49 0 0.0 0.0 0.00 0.00 0.00 88 1010.3
20260507074121 50 0 0.0 0.0 0.00 0.00 0.00 88 1010.3